Weather History for Davenport, IA

Change the Weather History Date:

Thursday, July 4, 2013

  Actual Average Record
Temperature  
Mean Temperature 72 °F 73 °F  
Max Temperature 84 °F 84 °F 95 °F (1949)
Min Temperature 59 °F 63 °F 50 °F (1967)
Degree Days  
Heating Degree Days 0 0  
Month to date heating degree days 0 0  
Since 1 June heating degree days 24 24  
Since 1 July heating degree days 0 0  
Cooling Degree Days 7 8  
Month to date cooling degree days 11 32  
Year to date cooling degree days 302 275  
Since 1 June cooling degree days 207 214  
Growing Degree Days 22 (Base 50)    
Moisture  
Dew Point 58 °F    
Average Humidity 61    
Maximum Humidity 81    
Minimum Humidity 40    
Precipitation  
Precipitation 0.00 in 0.10 in 3.46 in (2007)
Month to date precipitation 0.00 0.40  
Year to date precipitation 25.40 17.40  
Snow  
Snow 0.00 in - - ()
Month to date snowfall 0.0  
Since 1 June snowfall 0.0  
Since 1 July snowfall 0.0  
Snow Depth 0.00 in    
Sea Level Pressure  
Sea Level Pressure 30.04 in    
Wind  
Wind Speed 6 mph (South)    
Max Wind Speed 14 mph    
Max Gust Speed 17 mph    
Visibility 9 miles    
Events      
T = Trace of Precipitation, MM = Missing Value Source: NWS Daily Summary

Daily Weather History Graph

Daily Weather History Graph

Search for Another Location

Airport:

Trip Planner

Search our weather history database for the weather conditions in past years. The results will help you decide how hot, cold, wet, or windy it might be!

Date:

Astronomy

Jul. 04, 2013 Rise Set
Actual Time 5:33 AM CDT 8:39 PM CDT
Civil Twilight 4:59 AM CDT 9:13 PM CDT
Nautical Twilight 4:16 AM CDT 9:56 PM CDT
Astronomical Twilight 3:25 AM CDT 10:47 PM CDT
Moon 2:51 AM CDT (7/4) 5:43 PM CDT (7/4)
Length of Visible Light 16h 13m
Length of Day
15h 06m
Waning Crescent, 11% of the Moon is Illuminated
Jul 4
Waning Crescent
Jul 8
New
Jul 15
First Quarter
Jul 22
Full
Jul 29
Last Quarter

Hourly Weather History & Observations

Time (CDT) Temp. Heat Index Dew Point Humidity Pressure Visibility Wind Dir Wind Speed Gust Speed Precip Events Conditions
12:52 AM 60.1 °F - 54.0 °F 80% 30.05 in 9.0 mi SSE 5.8 mph - N/A   Clear
1:52 AM 59.0 °F - 53.1 °F 81% 30.06 in 9.0 mi SE 4.6 mph - N/A   Partly Cloudy
2:52 AM 60.1 °F - 54.0 °F 80% 30.06 in 9.0 mi SSE 4.6 mph - N/A   Partly Cloudy
3:52 AM 60.1 °F - 53.1 °F 78% 30.05 in 10.0 mi East 3.5 mph - N/A   Partly Cloudy
4:52 AM 59.0 °F - 54.0 °F 83% 30.06 in 10.0 mi ESE 6.9 mph - N/A   Partly Cloudy
5:52 AM 60.1 °F - 54.0 °F 80% 30.06 in 10.0 mi SE 4.6 mph - N/A   Clear
6:52 AM 64.0 °F - 57.0 °F 78% 30.07 in 10.0 mi Calm Calm - N/A   Clear
7:52 AM 66.9 °F - 60.1 °F 79% 30.08 in 8.0 mi South 3.5 mph - N/A   Clear
8:09 AM 69.8 °F - 60.8 °F 73% 30.08 in 7.0 mi SSW 5.8 mph - N/A   Partly Cloudy
8:52 AM 71.1 °F - 61.0 °F 70% 30.07 in 9.0 mi SW 5.8 mph - N/A   Clear
9:52 AM 75.0 °F - 62.1 °F 64% 30.06 in 9.0 mi WSW 4.6 mph - N/A   Clear
10:52 AM 78.1 °F - 61.0 °F 56% 30.06 in 10.0 mi South 4.6 mph - N/A   Clear
11:52 AM 80.1 °F 81.1 °F 61.0 °F 52% 30.05 in 10.0 mi SW 5.8 mph - N/A   Clear
12:52 PM 80.1 °F 80.6 °F 57.9 °F 47% 30.05 in 10.0 mi Calm Calm - N/A   Partly Cloudy
1:52 PM 82.9 °F 83.2 °F 60.1 °F 46% 30.04 in 10.0 mi SW 9.2 mph - N/A   Scattered Clouds
2:52 PM 82.9 °F 82.6 °F 57.9 °F 42% 30.03 in 10.0 mi SSW 10.4 mph - N/A   Scattered Clouds
3:52 PM 84.0 °F 83.5 °F 57.9 °F 41% 30.02 in 10.0 mi SSW 10.4 mph - N/A   Clear
4:52 PM 82.0 °F 81.7 °F 57.0 °F 42% 30.02 in 10.0 mi SSW 9.2 mph - N/A   Clear
5:52 PM 82.9 °F 82.1 °F 55.9 °F 39% 30.01 in 10.0 mi WSW 8.1 mph - N/A   Clear
6:52 PM 82.0 °F 81.6 °F 55.9 °F 41% 30.00 in 10.0 mi SW 5.8 mph - N/A   Clear
7:52 PM 78.1 °F - 57.0 °F 48% 30.01 in 10.0 mi WSW 3.5 mph - N/A   Clear
8:52 PM 73.0 °F - 57.9 °F 59% 30.00 in 10.0 mi SSE 3.5 mph - N/A   Clear
9:52 PM 70.0 °F - 59.0 °F 68% 30.01 in 10.0 mi SSE 4.6 mph - N/A   Clear
10:52 PM 70.0 °F - 60.1 °F 71% 30.02 in 6.0 mi South 6.9 mph - N/A   Haze
11:52 PM 72.0 °F - 60.1 °F 66% 30.02 in 10.0 mi South 9.2 mph - N/A   Clear